Date String (YYYY-MM-DD hh:mm:ss) UTC,Instrument flags,absolute air pressure of the measurement (hPa),sample flow rate (lpm),inlet stack bypass flow (lpm),air temperature of the measurement (°C),ambient temperature measured by the external sensor (°C),aerosol sample conditioner tube jacket temperature (°C),OPC LED temperature (°C),internal box temperature (°C),relative humidity of the measurement (%),span deviation,mass concentration of particles derived from Lorenz-Mie calculation of OPC scattering (μg/m³),mass concentration of particles derived from Lorenz-Mie calculation of OPC scattering (μg/m³),mass concentration of particles derived from Lorenz-Mie calculation of OPC scattering (μg/m³)
DateTimeUTC,F1_M11,P_M11,Q1_M11,Q2_M11,T1_M11,T2_M11,T3_M11,T4_M11,T5_M11,U1_M11,ZSPAN_M11,X0_M11,X2_M11,X1_M11
2024-04-18 23:00:00,SystemResetWarning,0833.4,5.00,000.00,019.9,019.3,000.0,028.5,021.8,022.8,0000.0,0006.98,0004.12,0003.81
2024-04-18 23:01:00,SystemResetWarning,0833.4,5.00,000.00,019.9,019.3,000.0,028.5,021.8,022.6,0000.0,0007.01,0004.14,0003.81
2024-04-18 23:02:00,SystemResetWarning,0833.4,5.01,000.00,019.9,019.3,000.0,028.5,021.8,022.6,0000.0,0007.12,0004.19,0003.85
2024-04-18 23:03:00,SystemResetWarning,0833.4,5.00,000.00,019.9,019.3,000.0,028.5,021.8,022.7,0000.0,0006.95,0004.19,0003.85
2024-04-18 23:04:00,SystemResetWarning,0833.4,4.99,000.00,019.9,019.3,000.0,028.5,021.8,022.7,0000.0,0006.73,0004.23,0003.87
2024-04-18 23:05:00,SystemResetWarning,0833.4,4.99,000.00,019.9,019.3,000.0,028.5,021.8,022.7,0000.0,0006.83,0004.24,0003.89
2024-04-18 23:06:00,SystemResetWarning,0833.4,4.99,000.00,019.9,019.3,000.0,028.5,021.8,022.7,0000.0,0006.65,0004.24,0003.88
2024-04-18 23:07:00,SystemResetWarning,0833.4,4.99,000.00,019.9,019.3,000.0,028.5,021.8,022.5,0000.0,0006.72,0004.20,0003.86
2024-04-18 23:08:00,SystemResetWarning,0833.4,5.00,000.00,019.9,019.3,000.0,028.5,021.8,022.7,0000.0,0007.27,0004.19,0003.85
2024-04-18 23:09:00,SystemResetWarning,0833.4,5.01,000.00,020.0,019.4,000.0,028.5,021.8,022.8,0000.0,0007.23,0004.18,0003.84
2024-04-18 23:10:00,SystemResetWarning,0833.3,5.00,000.00,020.0,019.4,000.0,028.5,021.8,022.8,0000.0,0007.33,0004.21,0003.84
2024-04-18 23:11:00,SystemResetWarning,0833.4,5.00,000.00,020.0,019.4,000.0,028.5,021.8,022.8,0000.0,0007.31,0004.20,0003.83
2024-04-18 23:12:00,SystemResetWarning,0833.4,4.99,000.00,020.0,019.4,000.0,028.5,021.8,022.7,0000.0,0007.22,0004.15,0003.80
2024-04-18 23:13:00,SystemResetWarning,0833.4,4.99,000.00,020.0,019.4,000.0,028.5,021.8,022.6,0000.0,0007.16,0004.13,0003.78
2024-04-18 23:14:00,SystemResetWarning,0833.4,5.00,000.00,020.0,019.4,000.0,028.5,021.8,022.4,0000.0,0007.25,0004.12,0003.77
2024-04-18 23:15:00,SystemResetWarning,0833.4,5.00,000.00,020.0,019.4,000.0,028.5,021.8,022.3,0000.0,0007.14,0004.09,0003.75
2024-04-18 23:16:00,SystemResetWarning,0833.4,5.00,000.00,020.0,019.4,000.0,028.5,021.8,022.2,0000.0,0007.16,0004.11,0003.76
2024-04-18 23:17:00,SystemResetWarning,0833.4,5.00,000.00,020.0,019.4,000.0,028.5,021.8,022.2,0000.0,0007.02,0004.11,0003.76
2024-04-18 23:18:00,SystemResetWarning,0833.3,5.00,000.00,020.0,019.4,000.0,028.5,021.8,022.2,0000.0,0006.66,0004.12,0003.79
2024-04-18 23:19:00,SystemResetWarning,0833.4,5.00,000.00,020.0,019.4,000.0,028.5,021.8,022.4,0000.0,0006.99,0004.12,0003.80
2024-04-18 23:20:00,SystemResetWarning,0833.4,5.00,000.00,020.0,019.4,000.0,028.5,021.8,022.5,0000.0,0007.07,0004.15,0003.81
2024-04-18 23:21:00,SystemResetWarning,0833.4,5.01,000.00,020.0,019.4,000.0,028.5,021.8,022.5,0000.0,0006.90,0004.12,0003.82
2024-04-18 23:22:00,SystemResetWarning,0833.4,5.00,000.00,020.0,019.4,000.0,028.5,021.8,022.3,0000.0,0006.77,0004.11,0003.82
2024-04-18 23:23:00,SystemResetWarning,0833.4,5.01,000.00,020.0,019.4,000.0,028.5,021.8,022.2,0000.0,0006.77,0004.10,0003.83
2024-04-18 23:24:00,SystemResetWarning,0833.4,5.00,000.00,020.0,019.4,000.0,028.5,021.8,022.1,0000.0,0007.01,0004.11,0003.83
2024-04-18 23:25:00,SystemResetWarning,0833.4,5.00,000.00,020.0,019.4,000.0,028.5,021.8,022.4,0000.0,0006.94,0004.11,0003.83
2024-04-18 23:26:00,SystemResetWarning,0833.5,5.00,000.00,020.0,019.4,000.0,028.5,021.8,022.4,0000.0,0007.52,0004.18,0003.87
2024-04-18 23:27:00,SystemResetWarning,0833.4,5.00,000.00,020.0,019.4,000.0,028.5,021.8,022.4,0000.0,0007.59,0004.22,0003.92
2024-04-18 23:28:00,SystemResetWarning,0833.4,5.00,000.00,020.0,019.4,000.0,028.5,021.8,022.4,0000.0,0007.61,0004.26,0003.97
2024-04-18 23:29:00,SystemResetWarning,0833.3,5.00,000.00,020.0,019.4,000.0,028.5,021.8,022.4,0000.0,0007.79,0004.36,0004.06
2024-04-18 23:30:00,SystemResetWarning,0833.3,5.00,000.00,020.0,019.4,000.0,028.5,021.8,022.3,0000.0,0007.78,0004.46,0004.13
2024-04-18 23:31:00,SystemResetWarning,0833.4,5.00,000.00,020.0,019.4,000.0,028.5,021.8,022.3,0000.0,0007.39,0004.56,0004.23
2024-04-18 23:32:00,SystemResetWarning,0833.4,5.00,000.00,020.0,019.4,000.0,028.5,021.8,022.2,0000.0,0007.43,0004.62,0004.31
2024-04-18 23:33:00,SystemResetWarning,0833.4,4.99,000.00,020.0,019.4,000.0,028.5,021.8,022.3,0000.0,0007.60,0004.75,0004.40
2024-04-18 23:34:00,SystemResetWarning,0833.4,4.99,000.00,020.0,019.4,000.0,028.5,021.8,022.4,0000.0,0007.73,0004.85,0004.49
2024-04-18 23:35:00,SystemResetWarning,0833.4,4.99,000.00,020.0,019.4,000.0,028.5,021.8,022.6,0000.0,0007.96,0004.96,0004.59
2024-04-18 23:36:00,SystemResetWarning,0833.4,5.01,000.00,020.0,019.4,000.0,028.5,021.8,022.7,0000.0,0007.93,0005.08,0004.70
2024-04-18 23:37:00,SystemResetWarning,0833.5,5.01,000.00,020.0,019.4,000.0,028.5,021.8,022.6,0000.0,0008.06,0005.20,0004.81
2024-04-18 23:38:00,SystemResetWarning,0833.5,4.99,000.00,020.0,019.4,000.0,028.5,021.8,022.6,0000.0,0007.79,0005.26,0004.89
2024-04-18 23:39:00,SystemResetWarning,0833.5,4.99,000.00,020.0,019.4,000.0,028.5,021.8,022.6,0000.0,0007.78,0005.29,0004.92
2024-04-18 23:40:00,SystemResetWarning,0833.5,4.99,000.00,020.0,019.4,000.0,028.5,021.8,022.4,0000.0,0007.73,0005.30,0004.94
2024-04-18 23:41:00,SystemResetWarning,0833.5,4.99,000.00,020.0,019.4,000.0,028.5,021.8,022.3,0000.0,0007.66,0005.28,0004.94
2024-04-18 23:42:00,SystemResetWarning,0833.5,5.00,000.00,020.0,019.4,000.0,028.5,021.8,022.4,0000.0,0007.67,0005.28,0004.94
2024-04-18 23:43:00,SystemResetWarning,0833.6,5.00,000.00,020.0,019.4,000.0,028.5,021.8,022.4,0000.0,0007.74,0005.31,0004.95
2024-04-18 23:44:00,SystemResetWarning,0833.6,5.00,000.00,020.0,019.4,000.0,028.5,021.8,022.4,0000.0,0007.72,0005.29,0004.95
2024-04-18 23:45:00,SystemResetWarning,0833.6,5.00,000.00,020.0,019.4,000.0,028.5,021.9,022.2,0000.0,0007.82,0005.32,0004.96
2024-04-18 23:46:00,SystemResetWarning,0833.6,5.00,000.00,020.0,019.4,000.0,028.5,021.8,022.1,0000.0,0007.78,0005.30,0004.94
2024-04-18 23:47:00,SystemResetWarning,0833.6,5.00,000.00,020.0,019.4,000.0,028.5,021.8,022.2,0000.0,0007.89,0005.31,0004.92
2024-04-18 23:48:00,SystemResetWarning,0833.6,5.00,000.00,020.0,019.4,000.0,028.5,021.8,022.3,0000.0,0007.85,0005.28,0004.90
2024-04-18 23:49:00,SystemResetWarning,0833.6,5.00,000.00,020.0,019.4,000.0,028.5,021.8,022.4,0000.0,0008.11,0005.29,0004.89
2024-04-18 23:50:00,SystemResetWarning,0833.6,5.00,000.00,020.0,019.4,000.0,028.5,021.8,022.3,0000.0,0008.43,0005.29,0004.89
2024-04-18 23:51:00,SystemResetWarning,0833.6,5.00,000.00,020.0,019.4,000.0,028.5,021.8,022.2,0000.0,0008.49,0005.32,0004.90
2024-04-18 23:52:00,SystemResetWarning,0833.7,5.01,000.00,020.0,019.4,000.0,028.5,021.9,022.1,0000.0,0008.74,0005.32,0004.90
2024-04-18 23:53:00,SystemResetWarning,0833.7,5.01,000.00,020.0,019.4,000.0,028.5,021.9,022.3,0000.0,0008.85,0005.33,0004.90
2024-04-18 23:54:00,SystemResetWarning,0833.7,5.00,000.00,020.0,019.4,000.0,028.6,021.8,022.5,0000.0,0008.80,0005.31,0004.91
2024-04-18 23:55:00,SystemResetWarning,0833.7,5.00,000.00,020.0,019.4,000.0,028.6,021.9,023.3,0000.0,0009.58,0005.33,0004.94
2024-04-18 23:56:00,SystemResetWarning,0833.7,5.00,000.00,020.0,019.4,000.0,028.6,021.9,022.8,0000.0,0009.88,0005.31,0004.96
2024-04-18 23:57:00,SystemResetWarning,0833.7,5.00,000.00,020.0,019.4,000.0,028.6,021.9,022.5,0000.0,0009.85,0005.32,0004.99
2024-04-18 23:58:00,SystemResetWarning,0833.7,5.00,000.00,020.0,019.5,000.0,028.6,021.9,022.5,0000.0,0010.68,0005.36,0005.03
2024-04-18 23:59:00,SystemResetWarning,0833.7,5.00,000.00,020.0,019.5,000.0,028.6,021.9,022.5,0000.0,0010.75,0005.38,0005.04
